Weather History for Delaware, OH

Change the Weather History Date:

Monday, November 12, 2012

  Actual Average Record
Temperature  
Mean Temperature 44 °F -  
Max Temperature 59 °F 48 °F 72 °F (1945)
Min Temperature 30 °F 32 °F 19 °F (1950)
Degree Days  
Heating Degree Days 20    
Moisture  
Dew Point 38 °F    
Average Humidity 78    
Maximum Humidity 94    
Minimum Humidity 41    
Precipitation  
Precipitation 0.54 in - - ()
Sea Level Pressure  
Sea Level Pressure 30.14 in    
Wind  
Wind Speed 12 mph (SW)    
Max Wind Speed 24 mph    
Max Gust Speed 32 mph    
Visibility 8 miles    
Events Rain    
Averages and records for this station are not official NWS values.
T = Trace of Precipitation, MM = Missing Value Source: NWS Daily Summary

Daily Weather History Graph

Daily Weather History Graph

Search for Another Location

Airport:

Trip Planner

Search our weather history database for the weather conditions in past years. The results will help you decide how hot, cold, wet, or windy it might be!

Date:

Astronomy

Nov. 12, 2012 Rise Set
Actual Time 7:15 AM EST 5:17 PM EST
Civil Twilight 6:46 AM EST 5:46 PM EST
Nautical Twilight 6:13 AM EST 6:19 PM EST
Astronomical Twilight 5:41 AM EST 6:51 PM EST
Moon 5:39 AM EST (11/12) 4:21 PM EST (11/12)
Length of Visible Light 11h 00m
Length of Day
10h 02m
Waning Crescent, 2% of the Moon is Illuminated
Nov 12
Waning Crescent
Nov 13
New
Nov 20
First Quarter
Nov 28
Full
Dec 6
Last Quarter

Hourly Weather History & Observations

Time (EST) Temp. Windchill Dew Point Humidity Pressure Visibility Wind Dir Wind Speed Gust Speed Precip Events Conditions
12:18 AM 57.2 °F - 33.8 °F 41% 30.11 in 10.0 mi South 6.9 mph - N/A   Clear
12:38 AM 57.2 °F - 33.8 °F 41% 30.11 in 10.0 mi South 6.9 mph - N/A   Clear
12:57 AM 55.4 °F - 33.8 °F 44% 30.10 in 10.0 mi South 9.2 mph - N/A   Clear
1:18 AM 55.4 °F - 33.8 °F 44% 30.11 in 10.0 mi South 8.1 mph - N/A   Clear
1:38 AM 55.4 °F - 33.8 °F 44% 30.11 in 10.0 mi South 10.4 mph - N/A   Clear
1:58 AM 57.2 °F - 35.6 °F 44% 30.10 in 10.0 mi South 13.8 mph 17.3 mph N/A   Clear
2:18 AM 57.2 °F - 35.6 °F 44% 30.10 in 10.0 mi South 12.7 mph - N/A   Scattered Clouds
2:37 AM 57.2 °F - 35.6 °F 44% 30.10 in 10.0 mi SSE 13.8 mph 18.4 mph N/A   Scattered Clouds
2:58 AM 57.2 °F - 35.6 °F 44% 30.09 in 10.0 mi SSE 12.7 mph 19.6 mph N/A   Clear
3:18 AM 57.2 °F - 37.4 °F 48% 30.08 in 10.0 mi South 16.1 mph 20.7 mph N/A   Clear
3:37 AM 57.2 °F - 37.4 °F 48% 30.07 in 10.0 mi SSE 16.1 mph - N/A   Clear
3:58 AM 59.0 °F - 39.2 °F 48% 30.06 in 10.0 mi SSE 16.1 mph - N/A   Clear
4:18 AM 59.0 °F - 41.0 °F 51% 30.05 in 10.0 mi SSE 19.6 mph 28.8 mph N/A   Clear
4:37 AM 59.0 °F - 41.0 °F 51% 30.04 in 10.0 mi SSE 19.6 mph 26.5 mph N/A   Clear
4:58 AM 59.0 °F - 41.0 °F 51% 30.04 in 10.0 mi SSE 20.7 mph 27.6 mph N/A   Clear
5:18 AM 59.0 °F - 42.8 °F 55% 30.03 in 10.0 mi SSE 17.3 mph 24.2 mph N/A   Clear
5:37 AM 59.0 °F - 42.8 °F 55% 30.03 in 10.0 mi South 17.3 mph 24.2 mph N/A   Clear
5:58 AM 59.0 °F - 42.8 °F 55% 30.03 in 10.0 mi South 15.0 mph 24.2 mph N/A   Mostly Cloudy
6:18 AM 59.0 °F - 44.6 °F 59% 30.05 in 10.0 mi South 16.1 mph 25.3 mph N/A Rain Rain
6:37 AM 55.4 °F - 46.4 °F 72% 30.07 in 5.0 mi SSW 11.5 mph 18.4 mph 0.06 in Rain Heavy Rain
6:58 AM 53.6 °F - 48.2 °F 82% 30.07 in 7.0 mi South 11.5 mph 18.4 mph 0.10 in Rain Rain
7:18 AM 53.6 °F - 48.2 °F 82% 30.05 in 7.0 mi South 15.0 mph 21.9 mph 0.03 in Rain Rain
7:37 AM 53.6 °F - 50.0 °F 88% 30.05 in 7.0 mi South 18.4 mph 23.0 mph 0.06 in Rain Rain
7:58 AM 53.6 °F - 50.0 °F 88% 30.04 in 7.0 mi South 23.0 mph 27.6 mph 0.10 in Rain Rain
8:18 AM 53.6 °F - 50.0 °F 88% 30.03 in 7.0 mi South 20.7 mph 26.5 mph 0.03 in Rain Rain
8:37 AM 53.6 °F - 50.0 °F 88% 30.03 in 4.0 mi South 20.7 mph 27.6 mph 0.06 in Rain Light Rain
8:58 AM 53.6 °F - 50.0 °F 88% 30.03 in 5.0 mi South 19.6 mph 27.6 mph 0.09 in Rain Rain
9:18 AM 53.6 °F - 51.8 °F 94% 30.02 in 3.0 mi South 21.9 mph 32.2 mph 0.03 in Rain Rain
9:37 AM 53.6 °F - 51.8 °F 94% 30.02 in 7.0 mi South 24.2 mph 31.1 mph 0.04 in Rain Light Rain
9:58 AM 55.4 °F - 51.8 °F 88% 30.01 in 10.0 mi South 20.7 mph 32.2 mph 0.04 in   Light Drizzle
10:18 AM 55.4 °F - 51.8 °F 88% 30.01 in 10.0 mi South 18.4 mph 27.6 mph N/A   Overcast
10:37 AM 55.4 °F - 51.8 °F 88% 30.01 in 4.0 mi South 16.1 mph 25.3 mph N/A Rain Heavy Rain
10:58 AM 51.8 °F - 50.0 °F 94% 30.05 in 1.8 mi WSW 12.7 mph 24.2 mph 0.09 in Rain Heavy Rain
11:17 AM 50.0 °F - 48.2 °F 94% 30.05 in 3.0 mi West 10.4 mph - 0.02 in Rain Rain
11:38 AM 50.0 °F - 48.2 °F 94% 30.06 in 3.0 mi West 9.2 mph 16.1 mph 0.04 in Rain Rain
11:58 AM 50.0 °F - 46.4 °F 87% 30.06 in 2.5 mi West 19.6 mph - 0.04 in   Drizzle
12:18 PM 46.4 °F 39.0 °F 44.6 °F 93% 30.07 in 4.0 mi West 19.6 mph - 0.01 in   Drizzle
12:38 PM 44.6 °F 36.9 °F 42.8 °F 93% 30.07 in 2.5 mi WNW 18.4 mph 24.2 mph 0.01 in   Drizzle
12:58 PM 42.8 °F 34.8 °F 41.0 °F 93% 30.08 in 3.0 mi WNW 17.3 mph 24.2 mph 0.01 in   Drizzle
1:18 PM 42.8 °F 35.4 °F 41.0 °F 93% 30.08 in 4.0 mi WNW 15.0 mph 20.7 mph N/A   Drizzle
1:38 PM 42.8 °F 38.0 °F 41.0 °F 93% 30.08 in 4.0 mi WNW 8.1 mph 11.5 mph 0.01 in Rain Rain
1:58 PM 42.8 °F 37.5 °F 39.2 °F 87% 30.11 in 5.0 mi West 9.2 mph - 0.02 in Rain Rain
2:17 PM 41.0 °F 35.2 °F 39.2 °F 93% 30.10 in 7.0 mi WNW 9.2 mph - N/A Rain Light Rain
2:38 PM 41.0 °F 34.7 °F 37.4 °F 87% 30.12 in 7.0 mi West 10.4 mph 18.4 mph 0.01 in Rain Rain
2:58 PM 39.2 °F 32.0 °F 35.6 °F 87% 30.13 in 4.0 mi West 11.5 mph - 0.04 in Rain Rain
3:17 PM 37.4 °F 31.4 °F 33.8 °F 87% 30.13 in 5.0 mi WSW 8.1 mph - 0.01 in Rain Light Rain
3:38 PM 37.4 °F 32.1 °F 33.8 °F 87% 30.16 in 10.0 mi West 6.9 mph - 0.01 in Rain Light Rain
3:58 PM 35.6 °F 25.9 °F 32.0 °F 87% 30.16 in 10.0 mi West 16.1 mph 26.5 mph 0.01 in   Overcast
4:17 PM 35.6 °F 28.6 °F 32.0 °F 87% 30.17 in 10.0 mi West 9.2 mph 17.3 mph N/A   Overcast
4:38 PM 35.6 °F 28.6 °F 32.0 °F 87% 30.20 in 10.0 mi West 9.2 mph 17.3 mph N/A   Overcast
4:58 PM 35.6 °F 28.0 °F 32.0 °F 87% 30.20 in 10.0 mi West 10.4 mph - N/A   Overcast
5:38 PM 35.6 °F 28.0 °F 32.0 °F 87% 30.22 in 10.0 mi WSW 10.4 mph - N/A   Overcast
5:58 PM 33.8 °F 27.0 °F 30.2 °F 87% 30.23 in 10.0 mi WSW 8.1 mph - N/A   Scattered Clouds
6:17 PM 33.8 °F 27.7 °F 30.2 °F 87% 30.24 in 10.0 mi WSW 6.9 mph - N/A   Clear
6:38 PM 33.8 °F 27.7 °F 30.2 °F 87% 30.24 in 10.0 mi WSW 6.9 mph - N/A   Clear
6:57 PM 33.8 °F 28.6 °F 30.2 °F 87% 30.26 in 10.0 mi SW 5.8 mph - N/A   Clear
7:18 PM 32.0 °F 26.4 °F 30.2 °F 93% 30.27 in 10.0 mi SW 5.8 mph - N/A   Clear
7:38 PM 32.0 °F 26.4 °F 30.2 °F 93% 30.27 in 10.0 mi SW 5.8 mph - N/A   Clear
7:57 PM 32.0 °F 27.5 °F 30.2 °F 93% 30.28 in 10.0 mi SW 4.6 mph - N/A   Clear
8:18 PM 32.0 °F 27.5 °F 30.2 °F 93% 30.29 in 10.0 mi SW 4.6 mph - N/A   Clear
8:38 PM 32.0 °F 27.5 °F 30.2 °F 93% 30.30 in 10.0 mi SW 4.6 mph - N/A   Clear
8:57 PM 32.0 °F 27.5 °F 30.2 °F 93% 30.31 in 10.0 mi WSW 4.6 mph - N/A   Clear
9:38 PM 32.0 °F 28.7 °F 28.4 °F 87% 30.33 in 10.0 mi WSW 3.5 mph - N/A   Clear
9:57 PM 32.0 °F 26.4 °F 30.2 °F 93% 30.34 in 10.0 mi West 5.8 mph - N/A   Clear
10:18 PM 32.0 °F 27.5 °F 28.4 °F 87% 30.35 in 10.0 mi West 4.6 mph - N/A   Clear
10:38 PM 32.0 °F 26.4 °F 28.4 °F 87% 30.35 in 10.0 mi WSW 5.8 mph - N/A   Clear
10:57 PM 32.0 °F 27.5 °F 26.6 °F 80% 30.36 in 10.0 mi WSW 4.6 mph - N/A   Clear
11:18 PM 32.0 °F 27.5 °F 26.6 °F 80% 30.36 in 10.0 mi WSW 4.6 mph - N/A   Clear
11:38 PM 30.2 °F 26.7 °F 26.6 °F 86% 30.36 in 10.0 mi SSW 3.5 mph - N/A   Clear
11:57 PM 30.2 °F 24.3 °F 26.6 °F 86% 30.37 in 10.0 mi SSW 5.8 mph - N/A   Clear